CW1767 Weather Reports


Display with metric or nautical units.
time (UTC)temp
F
wind
direction
speed
MPH
gust
MPH
rain 1hr
in
rain 24hr
in
rain mn
in
humidity
%
barometer
mb
20260903183107 86 72 0.0 2.0 0.00 0.39 0.00 79 1014.8
20260903181552 85 188 0.0 2.0 0.00 0.39 0.00 80 1014.8
20260903180045 85 88 0.0 1.0 0.00 0.39 0.00 80 1015.1
20260903174545 85 183 0.0 1.0 0.00 0.39 0.00 80 1015.5
20260903173044 85 275 0.0 2.0 0.00 0.39 0.00 80 1015.4
20260903171543 86 186 0.0 3.0 0.00 0.39 0.00 78 1015.3
20260903170041 86 89 0.0 2.0 0.00 0.39 0.00 78 1015.5
20260903164540 86 175 0.0 3.0 0.00 0.39 0.00 79 1015.7
20260903163039 86 130 0.0 2.0 0.00 0.39 0.00 79 1016.0
20260903161556 85 180 0.0 2.0 0.00 0.39 0.00 82 1016.2
20260903160035 84 128 0.0 1.0 0.00 0.39 0.00 82 1016.1
20260903154531 83 257 0.0 1.0 0.00 0.39 0.00 83 1016.3
20260903153030 83 190 0.0 1.0 0.00 0.39 0.00 82 1016.5
20260903151527 82 177 0.0 1.0 0.00 0.39 0.00 86 1016.2
20260903150025 81 186 2.0 6.0 0.00 0.39 0.00 87 1015.6
20260903144523 80 186 0.0 2.0 0.00 0.39 0.00 89 1015.9
20260903143018 79 191 1.0 3.0 0.00 0.39 0.00 90 1016.1
20260903141513 77 168 0.0 2.0 0.00 0.39 0.00 92 1016.5
20260903140015 77 175 0.0 1.0 0.00 0.39 0.00 94 1016.6
20260903134509 76 149 0.0 2.0 0.00 0.39 0.00 95 1016.6
20260903133008 76 173 0.0 1.0 0.00 0.39 0.00 96 1016.8
20260903131510 76 103 0.0 1.0 0.00 0.39 0.00 96 1017.1
20260903130005 75 81 0.0 2.0 0.00 0.39 0.00 96 1017.4
20260903124503 75 87 0.0 2.0 0.00 0.39 0.00 97 1017.4
20260903123100 74 76 0.0 1.0 0.00 0.39 0.00 96 1017.6
20260903121600 74 76 0.0 2.0 0.00 0.39 0.00 96 1017.7
20260903120052 73 114 0.0 1.0 0.00 0.39 0.00 96 1017.4
20260903114547 73 80 0.0 1.0 0.00 0.39 0.00 96 1017.4
20260903113043 73 84 0.0 1.0 0.00 0.39 0.00 96 1017.3
20260903111539 73 84 0.0 1.0 0.00 0.39 0.00 96 1017.0
20260903110033 73 71 0.0 1.0 0.00 0.39 0.00 96 1017.0
20260903104534 73 71 0.0 0.0 0.00 0.39 0.00 96 1016.8
20260903103025 73 71 0.0 0.0 0.00 0.39 0.00 96 1016.7
20260903101529 73 71 0.0 0.0 0.00 0.39 0.00 96 1016.5
20260903100023 73 71 0.0 1.0 0.00 0.39 0.00 96 1016.4
20260903094513 73 71 0.0 1.0 0.00 0.39 0.00 96 1016.4
20260903093008 73 71 0.0 1.0 0.00 0.39 0.00 96 1016.6
20260903091510 73 71 0.0 0.0 0.00 0.39 0.00 96 1016.4
20260903090100 73 71 0.0 0.0 0.00 0.39 0.00 96 1016.3
20260903084555 73 71 0.0 2.0 0.00 0.39 0.00 96 1016.8
20260903083057 73 350 1.0 3.0 0.00 0.39 0.00 96 1017.0
20260903081549 73 330 0.0 1.0 0.00 0.39 0.00 96 1016.6
20260903080042 73 320 0.0 0.0 0.00 0.39 0.00 96 1016.2
20260903074540 73 320 0.0 0.0 0.00 0.39 0.00 96 1016.3
20260903073043 73 320 0.0 0.0 0.00 0.39 0.00 96 1016.0
20260903071529 73 320 0.0 0.0 0.00 0.39 0.00 96 1015.8
20260903070024 73 320 0.0 0.0 0.00 0.39 0.00 96 1015.6
20260903064522 73 320 0.0 0.0 0.00 0.39 0.00 96 1015.7
20260903063018 73 320 0.0 0.0 0.00 0.39 0.00 96 1015.9
20260903061512 73 320 0.0 0.0 0.00 0.39 0.00 96 1016.1
20260903060009 72 320 0.0 0.0 0.00 0.39 0.00 96 1016.3
20260903054508 72 320 0.0 0.0 0.00 0.39 0.00 96 1016.5
20260903053003 72 320 0.0 0.0 0.00 0.39 0.00 96 1016.6
20260903051601 72 320 0.0 0.0 0.00 0.39 0.00 96 1016.7
20260903050055 72 320 0.0 0.0 0.00 0.39 0.00 96 1016.8
20260903044551 71 320 0.0 0.0 0.00 0.39 0.00 96 1017.1
20260903043101 71 320 0.0 0.0 0.00 0.39 0.00 95 1016.8
20260903041543 71 320 0.0 0.0 0.00 0.39 0.00 95 1016.9
20260903040038 71 320 0.0 0.0 0.00 0.39 0.00 95 1016.5
20260903034539 71 320 0.0 0.0 0.00 0.39 0.39 95 1016.8
20260903033038 71 320 0.0 0.0 0.00 0.39 0.39 95 1016.7
20260903031545 71 320 0.0 0.0 0.00 0.39 0.39 95 1016.7
20260903030036 71 320 0.0 0.0 0.00 0.39 0.39 95 1016.9
20260903024535 71 320 0.0 0.0 0.00 0.39 0.39 95 1017.0
20260903023037 72 320 0.0 0.0 0.00 0.39 0.39 95 1016.8
20260903021535 72 320 0.0 0.0 0.00 0.39 0.39 95 1016.8
20260903020043 72 320 0.0 0.0 0.00 0.39 0.39 95 1017.1
20260903014533 72 320 0.0 0.0 0.00 0.39 0.39 95 1017.0
20260903013041 72 320 0.0 0.0 0.00 0.39 0.39 95 1017.2
20260903011533 72 320 0.0 0.0 0.00 0.39 0.39 95 1017.4
20260903010033 72 320 0.0 0.0 0.00 0.39 0.39 95 1017.0
20260903004534 73 320 0.0 0.0 0.00 0.39 0.39 95 1016.8
20260903003031 73 320 0.0 0.0 0.00 0.39 0.39 95 1016.6
20260903001531 72 320 0.0 0.0 0.00 0.39 0.39 95 1016.7
20260903000132 73 320 0.0 0.0 0.00 0.39 0.39 95 1016.8
20260902234529 73 320 0.0 0.0 0.00 0.39 0.39 94 1017.0
20260902233029 73 320 0.0 0.0 0.00 0.39 0.39 94 1016.9
20260902231528 73 320 0.0 0.0 0.00 0.39 0.39 94 1016.7
20260902230027 73 320 0.0 0.0 0.00 0.39 0.39 94 1016.7
20260902224532 73 320 0.0 0.0 0.00 0.39 0.39 94 1016.7
20260902223048 73 327 0.0 0.0 0.00 0.39 0.39 94 1017.0
20260902221526 73 327 0.0 0.0 0.00 0.39 0.39 94 1017.2
20260902220026 73 327 0.0 0.0 0.00 0.39 0.39 94 1017.0
20260902214627 73 327 0.0 0.0 0.00 0.39 0.39 94 1016.9
20260902213024 73 327 0.0 0.0 0.00 0.39 0.39 94 1017.0
20260902211524 73 327 0.0 1.0 0.00 0.39 0.39 94 1016.9
20260902210024 73 327 0.0 1.0 0.00 0.39 0.39 94 1016.6
20260902204538 72 331 0.0 2.0 0.00 0.39 0.39 94 1017.2
20260902203024 72 275 0.0 3.0 0.01 0.39 0.39 94 1017.0
20260902201522 72 266 0.0 1.0 0.05 0.39 0.39 94 1017.0
20260902200022 71 163 0.0 0.0 0.39 0.39 0.39 93 1016.1
20260902194525 71 109 0.0 3.0 0.39 0.39 0.39 93 1016.5
20260902193019 72 74 2.0 6.0 0.38 0.38 0.38 91 1017.3
20260902191518 74 10 4.0 15.0 0.34 0.34 0.34 88 1019.1
20260902190015 83 74 0.0 2.0 0.00 0.00 0.00 78 1018.5
20260902184513 85 85 0.0 4.0 0.00 0.00 0.00 76 1018.2